1505480400.87,45240,18.13,73682.3,9.05,-16.41,-19.41,0,*79
1505480402.09,45241,18.13,73684.8,9.09,-17.69,-19.23,0,*7B
1505480403.35,45242,18.13,73680.8,9.13,-19.31,-20.83,0,*70
1505480404.6,45243,18.13,73686.8,9.15,-21.97,-23.09,0,*71
1505480405.85,45244,18.13,73684.3,9.15,-22.37,-23.53,0,*70
1505480407.07,45245,18.13,73686.3,9.17,-23.19,-24.35,0,*79
1505480408.28,45246,18.13,73684.0,9.17,-22.53,-23.79,0,*7A
1505480409.55,45247,18.13,73686.3,9.15,-21.33,-23.19,0,*7A
1505480410.8,45248,18.13,73686.5,9.17,-23.33,-23.69,0,*72
1505480412.02,45249,18.13,73686.0,9.19,-22.63,-23.13,0,*74
1505480413.25,45250,18.13,73686.3,9.21,-25.03,-24.51,0,*77
1505480414.48,45251,18.13,73686.8,9.21,-26.97,-24.05,0,*79
1505480415.73,45252,18.13,73686.5,9.19,-26.61,-24.87,0,*72
1505480416.97,45253,18.13,73684.3,9.21,-26.03,-24.25,0,*74
1505480418.25,45254,18.13,73680.8,9.19,-23.33,-21.67,0,*7D
1505480419.49,45255,18.13,73680.0,9.19,-20.79,-18.17,0,*7C
1505480420.73,45256,18.13,73684.0,9.19,-18.99,-15.25,0,*76
1505480421.96,45257,18.13,73680.0,9.21,-16.93,-12.71,0,*7E
1505480423.21,45258,18.13,73680.5,9.23,-13.69,-10.79,0,*79
1505480424.43,45259,18.13,73686.8,9.23,-12.03,-10.09,0,*72
1505480425.66,45260,18.13,73686.8,9.25,-11.45,-11.59,0,*7B
1505480426.92,45261,18.13,73686.0,9.27,-14.11,-14.43,0,*72
1505480428.2,45262,18.13,73684.8,9.27,-14.83,-14.97,0,*73
1505480429.45,45263,18.13,73686.0,9.27,-17.73,-17.21,0,*70
1505480430.64,45264,18.13,73678.5,9.25,-22.27,-18.83,0,*75
1505480431.92,45265,18.13,73678.8,9.23,-19.61,-17.25,0,*7B
1505480433.12,45266,18.13,73676.5,9.21,-19.07,-19.17,0,*75
1505480434.38,45267,18.13,73684.0,9.21,-21.03,-24.21,0,*70
1505480435.66,45268,18.13,73678.0,9.19,-26.55,-25.97,0,*7C
1505480436.86,45269,18.13,73676.8,9.21,-19.47,-20.73,0,*76
1505480438.11,45270,18.13,73676.8,9.19,-17.11,-19.91,0,*7E
1505480439.37,45271,18.13,73676.8,9.19,-16.65,-18.21,0,*77
1505480440.59,45272,18.13,73674.5,9.15,-16.59,-18.41,0,*71
1505480441.84,45273,18.13,73680.5,9.17,-15.57,-15.81,0,*7E
1505480443.09,45274,18.13,73678.8,9.15,-15.85,-17.31,0,*7D
1505480444.35,45275,18.13,73680.0,9.15,-19.85,-21.57,0,*75
1505480445.64,45276,18.13,73678.3,9.11,-17.97,-20.99,0,*7C
1505480446.93,45277,18.13,73686.5,9.11,-22.17,-26.13,0,*77
1505480448.16,45278,18.13,73680.8,9.09,-26.03,-30.01,0,*74
1505480449.41,45279,18.13,73682.8,9.01,-30.23,-31.85,0,*75
1505480450.64,45280,18.13,73684.3,9.01,-30.11,-30.67,0,*7F
1505480451.89,45281,18.13,73682.5,9.01,-30.77,-31.67,0,*7F
1505480453.13,45282,18.13,73684.5,9.01,-29.95,-30.67,0,*79
1505480454.41,45283,18.13,73684.5,9.01,-32.85,-32.85,0,*7D
1505480455.65,45284,18.13,73690.3,8.97,-31.79,-31.73,0,*7E
1505480456.89,45285,18.13,73686.3,8.97,-30.61,-28.97,0,*75
1505480458.14,45286,18.13,73690.0,8.97,-29.13,-28.97,0,*7B
1505480459.33,45287,18.13,73690.3,8.99,-31.01,-31.05,0,*7D
1505480460.55,45288,18.13,73688.0,8.97,-30.27,-29.79,0,*7B
1505480461.8,45289,18.13,73688.5,8.99,-29.39,-29.39,0,*77
1505480463.08,45290,18.13,73690.3,8.97,-31.23,-31.23,0,*71
1505480464.3,45291,18.13,73690.5,8.97,-32.39,-32.13,0,*78
1505480465.52,45292,18.13,73690.5,8.97,-31.05,-31.01,0,*77
1505480466.75,45293,18.13,73692.0,8.99,-30.89,-30.83,0,*76
1505480467.99,45294,18.13,73690.0,8.97,-29.95,-29.39,0,*73
1505480469.21,45295,18.13,73692.3,8.99,-29.67,-29.13,0,*79
1505480470.41,45296,18.13,73688.5,9.03,-29.07,-28.37,0,*79
1505480471.64,45297,18.13,73690.8,9.03,-28.85,-28.05,0,*72
1505480472.91,45298,18.13,73694.8,9.11,-28.75,-28.09,0,*7D
1505480474.14,45299,18.13,73692.8,9.09,-28.59,-27.93,0,*77
1505480475.4,45300,18.13,73690.5,9.13,-28.75,-28.05,0,*73
1505480476.6,45301,18.13,73688.8,9.13,-29.45,-29.23,0,*75
1505480477.82,45302,18.13,73688.8,9.13,-30.39,-30.11,0,*7C
1505480479.01,45303,18.13,73690.8,9.13,-29.79,-29.23,0,*78
1505480480.22,45304,18.13,73688.0,9.17,-28.69,-28.31,0,*79
1505480481.45,45305,18.13,73686.3,9.17,-28.31,-27.83,0,*73
1505480482.68,45306,18.13,73686.3,9.21,-28.69,-28.25,0,*7B
1505480483.91,45307,18.13,73690.3,9.21,-28.05,-27.55,0,*78
1505480485.14,45308,18.13,73684.5,9.25,-28.53,-28.05,0,*7A
1505480486.39,45309,18.13,73690.0,9.27,-28.97,-28.47,0,*77
1505480487.64,45310,18.13,73686.5,9.27,-28.97,-28.63,0,*79
1505480488.89,45311,18.13,73686.0,9.31,-28.97,-28.47,0,*79
1505480490.16,45312,18.13,73684.3,9.31,-28.75,-28.25,0,*72
1505480491.41,45313,18.13,73684.8,9.35,-28.53,-28.09,0,*7D
1505480492.66,45314,18.13,73682.0,9.35,-28.21,-27.71,0,*7F
1505480493.89,45315,18.13,73686.8,9.37,-28.79,-28.37,0,*7C
1505480495.1,45316,18.13,73684.3,9.39,-28.69,-28.37,0,*70
1505480496.36,45317,18.19,73688.0,9.41,-28.43,-28.15,0,*76
1505480497.61,45318,18.13,73684.3,9.41,-28.43,-28.15,0,*79
1505480498.84,45319,18.19,73688.8,9.43,-28.09,-27.77,0,*7F
1505480500.07,45320,18.13,73686.3,9.43,-28.09,-27.71,0,*73
1505480501.29,45321,18.13,73684.0,9.47,-28.15,-27.83,0,*76
1505480502.54,45322,18.13,73682.5,9.47,-28.63,-28.47,0,*73
1505480503.81,45323,18.13,73686.0,9.49,-29.01,-28.75,0,*78
1505480505.06,45324,18.13,73684.3,9.53,-28.63,-27.71,0,*7A
1505480506.31,45325,18.13,73684.5,9.53,-27.67,-25.97,0,*7A
1505480507.54,45326,18.13,73688.0,9.53,-26.65,-26.23,0,*76
1505480508.77,45327,18.13,73684.0,9.57,-27.89,-27.55,0,*70
1505480510.02,45328,18.13,73684.3,9.57,-28.37,-28.05,0,*7F
1505480511.27,45329,18.13,73686.0,9.57,-30.61,-30.33,0,*78
1505480512.52,45330,18.13,73686.5,9.55,-31.73,-31.39,0,*7B
1505480513.77,45331,18.13,73686.3,9.55,-30.89,-30.51,0,*71
1505480514.98,45332,18.13,73680.8,9.55,-30.61,-29.07,0,*7F
1505480516.23,45333,18.13,73686.3,9.55,-28.75,-24.25,0,*7F
1505480517.44,45334,18.13,73684.3,9.55,-22.83,-24.11,0,*7C
1505480518.64,45335,18.13,73684.8,9.55,-27.77,-29.23,0,*7F
1505480519.89,45336,18.19,73688.3,9.55,-30.17,-30.17,0,*73
1505480521.16,45337,18.13,73684.8,9.53,-30.73,-30.39,0,*7A
1505480522.45,45338,18.13,73686.3,9.49,-31.11,-30.77,0,*71
1505480523.67,45339,18.13,73682.3,9.55,-30.33,-30.01,0,*7D
1505480524.96,45340,18.13,73684.0,9.53,-31.23,-30.73,0,*70
1505480526.21,45341,18.13,73682.0,9.53,-29.61,-29.01,0,*73
1505480527.46,45342,18.13,73682.5,9.49,-29.73,-29.67,0,*78
1505480528.69,45343,18.19,73688.5,9.49,-31.45,-31.29,0,*76
1505480529.94,45344,18.13,73686.3,9.49,-31.45,-31.11,0,*7A
1505480531.19,45345,18.19,73686.3,9.49,-31.01,-30.61,0,*7D
1505480532.45,45346,18.13,73684.5,9.49,-32.85,-32.51,0,*70
1505480533.7,45347,18.13,73686.5,9.45,-33.31,-33.15,0,*72
1505480534.98,45348,18.13,73684.8,9.45,-32.29,-32.07,0,*77
1505480536.23,45349,18.13,73682.8,9.45,-32.01,-31.73,0,*7C
1505480537.49,45350,18.13,73682.5,9.41,-32.79,-32.35,0,*7E
1505480538.74,45351,18.13,73686.5,9.43,-32.75,-32.45,0,*76
1505480540.0,45352,18.13,73682.3,9.41,-32.69,-32.29,0,*70
1505480541.23,45353,18.19,73686.5,9.41,-32.51,-32.23,0,*70
1505480542.45,45354,18.13,73680.0,9.37,-31.61,-31.29,0,*7F
1505480543.67,45355,18.13,73680.5,9.37,-32.35,-32.19,0,*7C
1505480544.91,45356,18.19,73686.3,9.39,-31.61,-31.67,0,*79
1505480546.13,45357,18.19,73684.5,9.39,-32.35,-32.13,0,*7A
1505480547.37,45358,18.13,73684.3,9.37,-33.09,-33.09,0,*7F
1505480548.58,45359,18.13,73688.3,9.37,-32.51,-32.51,0,*7E
1505480549.85,45360,18.13,73684.0,9.35,-32.63,-32.75,0,*71
1505480551.1,45361,18.13,73686.0,9.33,-31.39,-31.57,0,*79
1505480552.32,45362,18.19,73684.5,9.35,-31.33,-32.01,0,*76
1505480553.57,45363,18.13,73684.3,9.33,-31.51,-32.19,0,*7C
1505480554.79,45364,18.13,73686.0,9.33,-30.45,-31.11,0,*74
1505480556.04,45365,18.13,73684.0,9.33,-31.73,-32.63,0,*77
1505480557.29,45366,18.19,73688.3,9.33,-31.91,-32.79,0,*73
1505480558.57,45367,18.13,73684.5,9.31,-31.95,-32.85,0,*77
1505480559.85,45368,18.13,73686.3,9.27,-31.23,-32.19,0,*77
1505480561.07,45369,18.13,73684.8,9.27,-30.45,-31.33,0,*7C
1505480562.35,45370,18.19,73684.8,9.27,-30.17,-30.95,0,*7E
1505480563.6,45371,18.13,73684.5,9.27,-29.39,-30.23,0,*76
1505480564.86,45372,18.13,73682.5,9.31,-29.95,-30.51,0,*71
1505480566.11,45373,18.19,73684.8,9.31,-29.45,-30.17,0,*7F
1505480567.37,45374,18.13,73684.0,9.33,-29.89,-30.17,0,*7A
1505480568.6,45375,18.13,73682.3,9.35,-29.57,-29.95,0,*7C
1505480569.83,45376,18.13,73682.3,9.35,-29.57,-29.61,0,*74
1505480571.06,45377,18.13,73682.0,9.35,-29.45,-29.57,0,*73
1505480572.29,45378,18.13,73680.3,9.37,-29.51,-29.57,0,*7B
1505480573.56,45379,18.13,73680.5,9.39,-30.89,-30.89,0,*72
1505480574.78,45380,18.19,73686.0,9.39,-32.51,-32.39,0,*7A
1505480576.0,45381,18.13,73680.3,9.37,-32.85,-32.57,0,*74
1505480577.25,45382,18.19,73686.8,9.37,-31.61,-31.51,0,*7B
1505480578.47,45383,18.19,73680.8,9.37,-31.51,-31.33,0,*7D
1505480579.69,45384,18.13,73680.3,9.37,-31.17,-31.11,0,*78
1505480580.92,45385,18.13,73678.8,9.37,-31.05,-30.73,0,*7F
1505480582.17,45386,18.13,73680.3,9.37,-30.95,-30.77,0,*70
1505480583.45,45387,18.13,73680.3,9.39,-32.19,-31.95,0,*74
1505480584.69,45388,18.19,73684.3,9.39,-31.51,-31.17,0,*7E
1505480585.91,45389,18.13,73684.8,9.37,-30.73,-30.27,0,*72
1505480587.13,45390,18.13,73684.8,9.37,-30.61,-30.27,0,*79
1505480588.35,45391,18.19,73686.3,9.39,-31.33,-31.05,0,*71
1505480589.57,45392,18.13,73686.0,9.39,-31.33,-31.05,0,*72
1505480590.82,45393,18.13,73686.5,9.39,-31.17,-30.77,0,*71
1505480592.1,45394,18.13,73684.5,9.39,-31.11,-30.73,0,*74
1505480593.36,45395,18.13,73686.5,9.43,-30.89,-30.51,0,*78
1505480594.64,45396,18.13,73684.3,9.41,-31.11,-30.73,0,*79
1505480595.89,45397,18.13,73686.0,9.41,-31.01,-30.51,0,*79
1505480597.13,45398,18.13,73686.8,9.43,-30.27,-29.89,0,*7C
1505480598.36,45399,18.19,73684.3,9.43,-30.95,-30.33,0,*7D
1505480599.59,45400,18.13,73684.0,9.45,-30.83,-30.27,0,*7E
1505480600.81,45401,18.13,73686.3,9.45,-30.33,-29.95,0,*75
1505480602.04,45402,18.19,73688.0,9.47,-29.83,-29.39,0,*71
1505480603.29,45403,18.19,73682.8,9.49,-29.95,-29.51,0,*77
1505480604.54,45404,18.19,73684.5,9.53,-29.67,-29.17,0,*74
1505480605.76,45405,18.19,73680.3,9.55,-29.73,-29.23,0,*71
1505480606.96,45406,18.13,73678.8,9.55,-29.95,-29.57,0,*79
1505480608.18,45407,18.13,73678.0,9.55,-29.95,-29.39,0,*70
1505480609.46,45408,18.19,73682.8,9.57,-30.89,-30.51,0,*7E
1505480610.69,45409,18.13,73678.5,9.55,-31.23,-30.83,0,*73
1505480611.92,45410,18.13,73676.0,9.55,-31.33,-30.77,0,*71
1505480613.18,45411,18.13,73676.8,9.57,-32.01,-31.39,0,*7B
1505480614.43,45412,18.13,73676.0,9.55,-31.73,-31.23,0,*77
1505480615.66,45413,18.19,73680.5,9.55,-32.75,-32.23,0,*70
1505480616.91,45414,18.19,73678.3,9.49,-33.09,-32.35,0,*77
1505480618.15,45415,18.13,73672.8,9.49,-31.67,-30.39,0,*72
1505480619.41,45416,18.19,73678.0,9.53,-30.95,-30.67,0,*7D
1505480620.64,45417,18.13,73678.8,9.53,-29.61,-27.93,0,*72
1505480621.86,45418,18.19,73680.8,9.53,-31.45,-30.23,0,*7F
1505480623.11,45419,18.13,73684.0,9.49,-32.39,-31.61,0,*7A
1505480624.36,45420,18.13,73682.8,9.47,-33.43,-31.95,0,*79
1505480625.59,45421,18.19,73684.3,9.47,-33.77,-32.35,0,*76
1505480626.82,45422,18.13,73684.0,9.45,-33.83,-32.91,0,*72
1505480628.08,45423,18.13,73682.3,9.41,-34.53,-33.37,0,*70
1505480629.34,45424,18.19,73684.3,9.41,-33.37,-32.79,0,*79
1505480630.59,45425,18.13,73686.3,9.39,-34.01,-33.67,0,*7B
1505480631.81,45426,18.19,73684.3,9.37,-35.07,-34.71,0,*71
1505480633.03,45427,18.13,73684.0,9.35,-34.77,-34.41,0,*77
1505480634.28,45428,18.13,73686.5,9.33,-33.89,-33.43,0,*7D
1505480635.5,45429,18.19,73686.3,9.31,-33.55,-33.15,0,*7C
1505480636.76,45430,18.13,73686.3,9.27,-34.31,-33.67,0,*73
1505480638.0,45431,18.19,73684.5,9.27,-32.35,-31.85,0,*7E
1505480639.25,45432,18.13,73686.3,9.27,-32.45,-32.01,0,*75
1505480640.51,45433,18.13,73684.8,9.31,-31.45,-30.89,0,*72
1505480641.78,45434,18.13,73686.8,9.31,-31.23,-30.55,0,*74
1505480643.03,45435,18.13,73690.3,9.31,-32.23,-31.91,0,*7F
1505480644.25,45436,18.19,73690.8,9.31,-33.03,-32.51,0,*70
1505480645.5,45437,18.19,73692.8,9.27,-33.61,-33.03,0,*74
1505480646.73,45438,18.13,73688.5,9.25,-33.95,-33.43,0,*76
1505480647.96,45439,18.19,73690.8,9.25,-34.71,-34.35,0,*7C
1505480649.18,45440,18.19,73688.5,9.23,-34.77,-34.41,0,*71
1505480650.41,45441,18.19,73688.3,9.19,-33.21,-32.69,0,*71
1505480651.65,45442,18.13,73686.8,9.19,-32.97,-32.57,0,*73
1505480652.88,45443,18.19,73690.0,9.19,-34.59,-34.07,0,*75
1505480654.13,45444,18.13,73684.8,9.19,-33.89,-33.37,0,*7C
1505480655.37,45445,18.19,73686.5,9.17,-34.95,-34.71,0,*7C
1505480656.65,45446,18.13,73686.8,9.15,-34.53,-34.01,0,*70
1505480657.87,45447,18.19,73690.8,9.15,-34.89,-34.47,0,*74
1505480659.1,45448,18.19,73690.0,9.13,-34.95,-34.59,0,*7F
1505480660.33,45449,18.19,73690.0,9.11,-34.07,-33.55,0,*7C
1505480661.59,45450,18.19,73688.3,9.09,-34.31,-33.89,0,*79
1505480662.83,45451,18.19,73688.8,9.05,-34.01,-33.55,0,*76
1505480664.03,45452,18.19,73690.8,9.09,-33.21,-32.57,0,*7F
1505480665.25,45453,18.19,73690.0,9.05,-32.91,-32.35,0,*7C
1505480666.52,45454,18.19,73688.3,9.05,-31.11,-30.55,0,*74
1505480667.79,45455,18.19,73690.3,9.11,-30.55,-30.01,0,*70
1505480669.04,45456,18.13,73688.5,9.09,-32.45,-31.73,0,*7D
1505480670.27,45457,18.13,73686.3,9.11,-32.57,-31.79,0,*7C
1505480671.52,45458,18.19,73690.8,9.11,-32.45,-31.79,0,*70
1505480672.8,45459,18.19,73688.0,9.11,-32.45,-31.73,0,*7B
1505480674.05,45460,18.13,73686.3,9.11,-31.73,-31.01,0,*72
1505480675.33,45461,18.19,73688.5,9.11,-30.73,-30.01,0,*73
1505480676.57,45462,18.13,73686.0,9.13,-31.11,-30.45,0,*77
1505480677.85,45463,18.13,73682.8,9.11,-31.51,-30.61,0,*76
1505480679.08,45464,18.13,73682.3,9.13,-30.83,-30.39,0,*70
1505480680.33,45465,18.13,73682.0,9.15,-30.89,-30.45,0,*76
1505480681.6,45466,18.13,73682.5,9.15,-30.55,-29.89,0,*7C
1505480682.83,45467,18.19,73686.8,9.17,-30.23,-29.89,0,*7E
1505480684.08,45468,18.13,73686.3,9.17,-30.55,-29.89,0,*70
1505480685.36,45469,18.13,73688.0,9.15,-31.23,-30.61,0,*7D
1505480686.61,45470,18.13,73688.0,9.19,-32.13,-31.39,0,*75
1505480687.83,45471,18.13,73684.8,9.17,-32.35,-31.11,0,*74
1505480689.09,45472,18.13,73686.3,9.15,-30.77,-30.33,0,*70
1505480690.37,45473,18.13,73682.5,9.15,-31.85,-32.19,0,*77
1505480691.6,45474,18.19,73686.8,9.13,-31.91,-32.69,0,*74
1505480692.83,45475,18.19,73682.8,9.13,-32.57,-33.31,0,*70
1505480694.06,45476,18.13,73680.0,9.05,-32.91,-34.19,0,*73
1505480695.29,45477,18.19,73680.0,9.05,-31.79,-33.21,0,*7B
1505480696.47,45478,18.19,73680.3,9.03,-31.01,-32.57,0,*7D
1505480697.68,45479,18.13,73682.3,9.03,-30.55,-32.35,0,*78
1505480698.87,45480,18.19,73682.3,9.03,-30.23,-32.57,0,*7B
1505480700.11,45481,18.13,73682.0,9.01,-30.45,-33.09,0,*72
1505480701.37,45482,18.13,73680.5,8.99,-29.51,-32.45,0,*75
1505480702.62,45483,18.19,73680.8,8.99,-28.05,-31.39,0,*7C
1505480703.88,45484,18.19,73682.5,8.97,-26.93,-30.67,0,*7E
1505480705.11,45485,18.19,73680.0,8.99,-26.61,-30.89,0,*7C
1505480706.32,45486,18.19,73682.5,8.97,-26.23,-31.01,0,*76
1505480707.56,45487,18.19,73682.8,8.99,-24.71,-29.67,0,*75
1505480708.8,45488,18.19,73680.3,9.01,-24.87,-29.95,0,*7E
1505480710.03,45489,18.19,73682.0,9.01,-25.39,-30.45,0,*7E
1505480711.23,45490,18.13,73682.0,9.03,-25.39,-30.27,0,*70
1505480712.45,45491,18.13,73682.5,9.03,-26.81,-31.67,0,*74
1505480713.65,45492,18.13,73680.3,9.03,-26.65,-31.33,0,*7C
1505480714.93,45493,18.13,73680.0,9.05,-26.97,-31.23,0,*77
1505480716.17,45494,18.13,73682.3,9.03,-26.97,-30.83,0,*7D
1505480717.36,45495,18.19,73686.8,9.03,-26.39,-30.27,0,*76
1505480718.59,45496,18.19,73684.5,9.03,-28.37,-31.85,0,*7C
1505480719.8,45497,18.19,73688.0,9.03,-27.19,-30.23,0,*73
1505480721.04,45498,18.13,73684.5,9.03,-26.17,-29.17,0,*7C
1505480722.24,45499,18.19,73684.8,9.03,-27.13,-29.95,0,*72
1505480723.44,45500,18.13,73684.0,9.09,-27.03,-29.79,0,*7A
1505480724.68,45501,18.13,73682.3,9.05,-27.77,-30.55,0,*72
1505480725.94,45502,18.13,73684.8,9.09,-29.51,-31.91,0,*7E
1505480727.17,45503,18.19,73688.0,9.03,-29.45,-32.19,0,*73
1505480728.43,45504,18.13,73684.3,9.01,-28.85,-31.51,0,*74
1505480729.68,45505,18.19,73686.5,9.01,-27.89,-30.61,0,*74
1505480730.93,45506,18.13,73684.0,9.01,-26.97,-29.79,0,*78
1505480732.15,45507,18.19,73686.8,9.01,-26.87,-30.11,0,*7E
1505480733.38,45508,18.19,73690.0,9.03,-26.81,-29.95,0,*71
1505480734.63,45509,18.19,73692.5,9.01,-28.05,-30.45,0,*75
1505480735.9,45510,18.19,73692.0,9.01,-29.35,-31.17,0,*79
1505480737.11,45511,18.19,73686.5,8.99,-29.57,-30.83,0,*70
1505480738.33,45512,18.19,73688.3,8.99,-29.61,-30.51,0,*79
1505480739.55,45513,18.19,73690.0,8.97,-30.27,-31.01,0,*78
1505480740.8,45514,18.19,73686.3,8.97,-31.33,-31.57,0,*78
1505480742.01,45515,18.19,73688.0,8.95,-32.35,-32.29,0,*74
1505480743.24,45516,18.19,73680.3,8.93,-32.01,-31.79,0,*70
1505480744.46,45517,18.19,73684.8,8.91,-30.61,-30.45,0,*79
1505480745.65,45518,18.19,73680.3,8.91,-30.23,-29.95,0,*75
1505480746.91,45519,18.19,73682.3,8.91,-30.61,-30.77,0,*76
1505480748.16,45520,18.19,73678.5,8.89,-32.45,-32.39,0,*79
1505480749.38,45521,18.19,73680.8,8.87,-33.67,-34.01,0,*7A
1505480750.63,45522,18.19,73680.5,8.85,-35.59,-36.13,0,*71
1505480751.89,45523,18.19,73680.8,8.77,-37.03,-37.39,0,*79
1505480753.16,45524,18.19,73680.5,8.75,-37.39,-37.39,0,*75
1505480754.41,45525,18.19,73680.5,8.69,-36.49,-36.79,0,*7A
1505480755.62,45526,18.19,73680.3,8.65,-36.19,-36.31,0,*7C
1505480756.87,45527,18.19,73680.0,8.59,-36.73,-36.79,0,*72
1505480758.07,45528,18.19,73682.8,8.57,-37.27,-37.15,0,*78
1505480759.28,45529,18.19,73676.0,8.53,-37.27,-37.03,0,*7A
1505480760.5,45530,18.13,73672.8,8.49,-37.33,-36.91,0,*76
1505480761.71,45531,18.19,73678.8,8.45,-38.55,-37.75,0,*7F
1505480762.9,45532,18.19,73678.5,8.39,-38.73,-37.75,0,*73
1505480764.13,45533,18.19,73676.5,8.33,-38.85,-37.57,0,*71
1505480765.32,45534,18.19,73676.0,8.31,-38.43,-36.85,0,*70
1505480766.57,45535,18.19,73674.0,8.27,-37.69,-35.83,0,*74
1505480767.8,45536,18.19,73672.5,8.21,-36.85,-35.13,0,*7B
1505480769.0,45537,18.13,73672.8,8.19,-35.59,-33.37,0,*73
1505480770.25,45538,18.19,73678.8,8.17,-34.25,-31.73,0,*7A
1505480771.51,45539,18.19,73672.3,8.11,-34.47,-32.07,0,*79
1505480772.76,45540,18.19,73674.5,8.07,-33.61,-31.45,0,*76
1505480773.98,45541,18.19,73678.0,8.05,-32.39,-29.89,0,*70
1505480775.2,45542,18.19,73674.0,8.03,-32.51,-29.07,0,*7D
1505480776.46,45543,18.13,73672.3,7.99,-31.73,-27.29,0,*71
1505480777.69,45544,18.19,73676.0,7.95,-31.79,-26.03,0,*79
1505480778.95,45545,18.19,73672.8,7.95,-31.45,-24.87,0,*79
1505480780.21,45546,18.19,73676.8,7.93,-31.61,-23.49,0,*7F
1505480781.41,45547,18.19,73672.8,7.89,-30.67,-22.03,0,*7D
1505480782.65,45548,18.19,73672.5,7.89,-29.89,-20.73,0,*7F
1505480783.88,45549,18.19,73672.5,7.87,-28.97,-19.37,0,*74
1505480785.09,45550,18.13,73672.3,7.85,-28.15,-18.07,0,*76
1505480786.29,45551,18.19,73674.5,7.85,-25.39,-15.67,0,*7F
1505480787.53,45552,18.19,73674.0,7.83,-25.19,-14.43,0,*7F
1505480788.74,45553,18.19,73670.0,7.81,-24.31,-12.97,0,*78
1505480789.96,45554,18.19,73672.3,7.79,-22.87,-11.55,0,*7E
1505480791.21,45555,18.19,73674.5,7.77,-19.91,-9.41,0,*42
1505480792.46,45556,18.19,73674.3,7.77,-16.37,-8.07,0,*41
1505480793.71,45557,18.19,73672.0,7.73,-13.19,-6.63,0,*41
1505480794.93,45558,18.19,73670.3,7.73,-11.45,-5.97,0,*4D
1505480796.14,45559,18.19,73670.5,7.67,-11.73,-6.43,0,*46
1505480797.37,45560,18.19,73670.3,7.63,-11.63,-6.31,0,*4C
1505480798.62,45561,18.19,73670.8,7.63,-10.63,-5.27,0,*48
1505480799.84,45562,18.13,73666.8,7.59,-8.51,-4.29,0,*75
1505480801.05,45563,18.19,73668.3,7.59,-7.61,-4.17,0,*75
1505480802.24,45564,18.19,73668.3,7.59,-7.15,-3.79,0,*7E
1505480803.45,45565,18.19,73664.3,7.59,-7.15,-3.67,0,*70
1505480804.66,45566,18.19,73664.0,7.57,-6.73,-3.35,0,*7B
1505480805.85,45567,18.19,73666.5,7.55,-6.43,-3.23,0,*7C
1505480807.07,45568,18.19,73668.0,7.55,-5.81,-2.99,0,*7E
1505480808.29,45569,18.19,73668.8,7.53,-5.55,-3.19,0,*79
1505480809.54,45570,18.19,73666.8,7.53,-5.15,-3.27,0,*78
1505480810.73,45571,18.19,73664.5,7.51,-4.53,-3.11,0,*7D
1505480811.97,45572,18.19,73664.8,7.51,-3.67,-2.51,0,*7B
1505480813.17,45573,18.19,73664.5,7.51,-3.91,-3.03,0,*75
1505480814.39,45574,18.19,73666.5,7.49,-3.19,-2.31,0,*7B
1505480815.63,45575,18.19,73664.3,7.47,-2.59,-1.79,0,*7E
1505480816.84,45576,18.19,73664.8,7.49,-2.19,-1.63,0,*7C
1505480818.05,45577,18.19,73664.5,7.47,-2.83,-2.39,0,*7C
1505480819.26,45578,18.19,73662.3,7.47,-2.39,-2.19,0,*70
1505480820.5,45579,18.19,73668.5,7.47,-2.47,-2.39,0,*7A
1505480821.71,45580,18.19,73666.3,7.47,-2.39,-2.31,0,*7D
1505480822.98,45581,18.19,73664.0,7.49,-2.71,-2.71,0,*7A
1505480824.21,45582,18.19,73668.5,7.41,-1.87,-1.95,0,*72
1505480825.43,45583,18.19,73668.0,7.43,-1.71,-1.75,0,*76
1505480826.64,45584,18.19,73666.3,7.43,-0.57,-0.49,0,*7A
1505480827.85,45585,18.19,73666.8,7.49,-0.77,-0.77,0,*7E
1505480829.1,45586,18.19,73666.3,7.49,-0.93,-0.97,0,*79
1505480830.32,45587,18.19,73664.8,7.49,-1.21,-1.29,0,*74
1505480831.55,45588,18.19,73670.0,7.51,-0.89,-0.93,0,*71
1505480832.76,45589,18.19,73672.3,7.53,-0.11,-0.15,0,*7D
1505480834.0,45590,18.19,73672.8,7.53,-0.37,-0.89,0,*74
1505480835.21,45591,18.19,73672.0,7.55,-0.97,-1.75,0,*4B
1505480836.46,45592,18.19,73670.3,7.57,-1.29,-2.55,0,*7F
1505480837.64,45593,18.19,73674.0,7.59,-0.77,-2.39,0,*40
1505480838.84,45594,18.19,73674.8,7.63,-1.51,-3.47,0,*73
1505480840.03,45595,18.19,73670.0,7.63,-2.35,-4.61,0,*70
1505480841.3,45596,18.19,73672.3,7.65,-3.51,-5.69,0,*7F
1505480842.51,45597,18.19,73672.0,7.65,-4.17,-6.09,0,*7E
1505480843.74,45598,18.19,73670.5,7.65,-4.81,-6.39,0,*7D
1505480844.93,45599,18.19,73668.5,7.63,-5.39,-6.89,0,*73
1505480846.17,45600,18.19,73668.0,7.65,-5.15,-6.51,0,*7D
1505480847.38,45601,18.19,73672.3,7.63,-6.19,-6.89,0,*70
1505480848.6,45602,18.19,73664.8,7.63,-7.11,-7.01,0,*7B
1505480849.81,45603,18.19,73670.0,7.63,-7.65,-6.77,0,*79
1505480851.0,45604,18.19,73668.0,7.63,-6.85,-5.39,0,*78
1505480852.22,45605,18.19,73664.8,7.63,-6.59,-5.03,0,*71
1505480853.43,45606,18.19,73670.3,7.63,-6.23,-4.61,0,*7A
1505480854.69,45607,18.19,73666.8,7.61,-5.19,-3.63,0,*76
1505480855.91,45608,18.19,73666.8,7.61,-4.65,-3.03,0,*75
1505480857.14,45609,18.19,73664.3,7.61,-3.75,-2.39,0,*7A
1505480858.35,45610,18.19,73666.3,7.59,-2.51,-1.25,0,*70
1505480859.56,45611,18.19,73666.8,7.59,-2.51,-1.63,0,*73
1505480860.8,45612,18.19,73668.8,7.61,-1.79,-1.05,0,*72
1505480861.98,45613,18.19,73668.3,7.63,-1.25,-0.65,0,*4F
1505480863.19,45614,18.19,73668.3,7.63,-1.51,-1.09,0,*70
1505480864.4,45615,18.19,73672.3,7.63,-1.43,-1.25,0,*7C
1505480865.6,45616,18.19,73670.5,7.65,-1.59,-1.63,0,*70
1505480866.84,45617,18.19,73668.3,7.65,-1.51,-1.87,0,*73
1505480868.03,45618,18.19,73672.8,7.63,-1.71,-2.23,0,*75
1505480869.25,45619,18.19,73674.8,7.63,-1.71,-2.11,0,*75
1505480870.44,45620,18.19,73672.5,7.63,-1.75,-2.19,0,*73
1505480871.63,45621,18.19,73674.3,7.63,-1.33,-1.63,0,*7E
1505480872.84,45622,18.19,73674.3,7.67,-1.09,-1.55,0,*75
1505480874.01,45623,18.19,73676.0,7.67,-0.61,-1.17,0,*4D
1505480875.19,45624,18.19,73672.5,7.67,-0.45,-1.17,0,*4C
1505480876.36,45625,18.19,73674.5,7.71,0.05,-0.81,0,*6D
1505480877.57,45626,18.19,73672.5,7.73,0.37,-0.69,0,*5B
1505480878.81,45627,18.19,73674.3,7.73,0.59,-0.89,0,*5C
1505480880.0,45628,18.19,73674.3,7.75,-0.11,-1.75,0,*46
1505480881.18,45629,18.19,73674.5,7.79,-0.19,-2.35,0,*44
1505480882.39,45630,18.19,73674.3,7.83,-0.45,-3.39,0,*4D
1505480883.61,45631,18.19,73674.3,7.81,-1.51,-5.61,0,*71
1505480884.82,45632,18.19,73670.8,7.85,-3.03,-7.69,0,*79
1505480886.01,45633,18.19,73674.8,7.85,-4.13,-8.59,0,*72
1505480887.22,45634,18.19,73674.3,7.85,-4.81,-8.67,0,*73
1505480888.45,45635,18.19,73672.3,7.85,-4.77,-7.27,0,*70
1505480889.68,45636,18.19,73672.3,7.85,-3.39,-4.93,0,*72
1505480890.89,45637,18.19,73672.0,7.85,-2.51,-3.75,0,*73
1505480892.09,45638,18.19,73678.3,7.85,-2.35,-3.35,0,*7A
1505480893.31,45639,18.19,73672.0,7.85,-2.03,-2.99,0,*79
1505480894.53,45640,18.19,73672.3,7.87,-1.75,-2.83,0,*7C
1505480895.74,45641,18.19,73674.3,7.87,-2.23,-3.87,0,*78
1505480896.96,45642,18.19,73678.3,7.87,-2.39,-4.57,0,*7A
1505480898.2,45643,18.19,73676.0,7.87,-2.91,-4.81,0,*72
1505480899.42,45644,18.19,73674.8,7.89,-2.67,-4.21,0,*78
1505480900.67,45645,18.19,73672.8,7.93,-3.71,-4.69,0,*78
1505480901.86,45646,18.19,73672.5,7.93,-4.17,-4.33,0,*73
1505480903.06,45647,18.19,73672.8,7.93,-4.33,-3.91,0,*7B
1505480904.26,45648,18.19,73674.0,7.93,-3.27,-2.43,0,*78
1505480905.49,45649,18.19,73672.0,7.95,-2.31,-1.95,0,*71